Tracking 29065 objects as of 22-Jul-2024
HD Live streaming from Space Station
objects crossing your sky now

STARLINK-30110

Track STARLINK-30110 now!
10-day predictions
STARLINK-30110 is classified as:


NORAD ID: 57474
Int'l Code: 2023-107T
Perigee: 565.6 km
Apogee: 566.8 km
Inclination: 43.0 °
Period: 95.8 minutes
Semi major axis: 6937 km
RCS: Unknown
Launch date: July 28, 2023
Source: (TBD)
Launch site: AIR FORCE EASTERN TEST RANGE (AFETR)
Your satellite tracking list
Your tracking list is empty




NASA's NSSDC Master Catalog

Two Line Element Set (TLE):
1 57474U 23107T   24203.82084870  .00001398  00000-0  11856-3 0  9993
2 57474  43.0013 336.3550 0000837 274.6803  85.3944 15.02538569 55482
Source of the keplerian elements: AFSPC